| time (UTC) | temp C | wind direction | speed KPH | gust KPH | rain 1hr cm | rain 24hr cm | rain mn cm | humidity % | barometer mb |
| 20260510023026 | 9 | 298 | 9.7 | 14.5 | 0.00 | 0.00 | 0.00 | 38 | 1012.1 |
| 20260510021532 | 9 | 335 | 8.0 | 16.1 | 0.00 | 0.00 | 0.00 | 38 | 1012.1 |
| 20260510020028 | 10 | 335 | 9.7 | 20.9 | 0.00 | 0.00 | 0.00 | 37 | 1012.0 |
| 20260510014526 | 10 | 350 | 4.8 | 19.3 | 0.00 | 0.00 | 0.00 | 36 | 1011.7 |
| 20260510013014 | 10 | 360 | 17.7 | 29.0 | 0.00 | 0.00 | 0.00 | 35 | 1009.7 |
| 20260510011520 | 10 | 1 | 11.3 | 27.4 | 0.00 | 0.00 | 0.00 | 34 | 1006.7 |
| 20260510010023 | 10 | 359 | 17.7 | 27.4 | 0.00 | 0.00 | 0.00 | 34 | 1006.3 |
| 20260510004509 | 11 | 1 | 6.4 | 22.5 | 0.00 | 0.00 | 0.00 | 33 | 1010.6 |
| 20260510003014 | 11 | 356 | 8.0 | 29.0 | 0.00 | 0.00 | 0.00 | 32 | 1010.4 |
| 20260510001521 | 11 | 352 | 16.1 | 32.2 | 0.00 | 0.00 | 0.00 | 31 | 1010.3 |
| 20260510000027 | 11 | 75 | 4.8 | 32.2 | 0.00 | 0.00 | 0.00 | 31 | 1010.0 |
| 20260509234525 | 12 | 328 | 12.9 | 38.6 | 0.00 | 0.00 | 0.00 | 30 | 1009.7 |
| 20260509233011 | 11 | 350 | 22.5 | 41.8 | 0.00 | 0.00 | 0.00 | 30 | 1005.2 |
| 20260509231517 | 12 | 336 | 11.3 | 32.2 | 0.00 | 0.00 | 0.00 | 31 | 1009.3 |
| 20260509230027 | 12 | 360 | 22.5 | 35.4 | 0.00 | 0.00 | 0.00 | 30 | 1009.0 |
| 20260509224522 | 11 | 340 | 17.7 | 32.2 | 0.00 | 0.00 | 0.00 | 31 | 1008.9 |
| 20260509223024 | 11 | 359 | 22.5 | 40.2 | 0.00 | 0.00 | 0.00 | 31 | 1008.9 |
| 20260509221510 | 12 | 1 | 20.9 | 37.0 | 0.00 | 0.00 | 0.00 | 30 | 1008.5 |
| 20260509220017 | 12 | 3 | 11.3 | 43.5 | 0.00 | 0.00 | 0.00 | 29 | 1008.4 |
| 20260509214534 | 12 | 342 | 25.7 | 37.0 | 0.00 | 0.00 | 0.00 | 29 | 1008.2 |
| 20260509213024 | 12 | 340 | 12.9 | 32.2 | 0.00 | 0.00 | 0.00 | 30 | 1008.0 |
| 20260509211511 | 11 | 339 | 22.5 | 35.4 | 0.00 | 0.00 | 0.00 | 30 | 1007.9 |
| 20260509210015 | 12 | 55 | 14.5 | 29.0 | 0.00 | 0.00 | 0.00 | 30 | 1006.7 |
| 20260509204529 | 12 | 357 | 8.0 | 24.1 | 0.00 | 0.00 | 0.00 | 31 | 1007.8 |
| 20260509203023 | 12 | 359 | 9.7 | 35.4 | 0.00 | 0.00 | 0.00 | 31 | 1007.8 |
| 20260509201527 | 11 | 356 | 12.9 | 32.2 | 0.00 | 0.00 | 0.00 | 32 | 1007.6 |
| 20260509200013 | 11 | 68 | 22.5 | 38.6 | 0.00 | 0.00 | 0.00 | 31 | 1007.2 |
| 20260509194522 | 11 | 341 | 16.1 | 32.2 | 0.00 | 0.00 | 0.00 | 31 | 1007.5 |
| 20260509193034 | 11 | 53 | 14.5 | 38.6 | 0.00 | 0.00 | 0.00 | 32 | 1007.4 |
| 20260509191526 | 11 | 346 | 17.7 | 33.8 | 0.00 | 0.00 | 0.00 | 32 | 1007.4 |
| 20260509190027 | 11 | 359 | 8.0 | 35.4 | 0.00 | 0.00 | 0.00 | 32 | 1005.6 |
| 20260509184518 | 10 | 10 | 24.1 | 35.4 | 0.00 | 0.00 | 0.00 | 31 | 1007.4 |
| 20260509183004 | 10 | 12 | 24.1 | 40.2 | 0.00 | 0.00 | 0.00 | 33 | 1005.7 |
| 20260509181508 | 10 | 355 | 19.3 | 35.4 | 0.00 | 0.00 | 0.00 | 34 | 1007.3 |
| 20260509180024 | 10 | 91 | 24.1 | 40.2 | 0.00 | 0.00 | 0.00 | 34 | 1007.0 |
| 20260509174518 | 10 | 1 | 12.9 | 38.6 | 0.00 | 0.00 | 0.00 | 36 | 1007.0 |
| 20260509173028 | 9 | 340 | 6.4 | 49.9 | 0.00 | 0.00 | 0.00 | 36 | 1006.0 |
| 20260509171511 | 10 | 349 | 12.9 | 40.2 | 0.00 | 0.00 | 0.00 | 37 | 1006.7 |
| 20260509170008 | 9 | 360 | 11.3 | 41.8 | 0.00 | 0.00 | 0.00 | 37 | 1005.6 |
| 20260509164512 | 10 | 1 | 16.1 | 46.7 | 0.00 | 0.00 | 0.00 | 37 | 1006.2 |
| 20260509163022 | 9 | 360 | 30.6 | 45.1 | 0.00 | 0.00 | 0.00 | 36 | 1005.5 |
| 20260509161521 | 10 | 49 | 16.1 | 45.1 | 0.00 | 0.00 | 0.00 | 37 | 1005.7 |
| 20260509160004 | 10 | 1 | 14.5 | 37.0 | 0.00 | 0.00 | 0.00 | 37 | 1003.8 |
| 20260509154512 | 9 | 347 | 16.1 | 41.8 | 0.00 | 0.00 | 0.00 | 39 | 1005.3 |
| 20260509153015 | 9 | 98 | 19.3 | 43.5 | 0.00 | 0.00 | 0.00 | 40 | 1004.8 |
| 20260509151520 | 8 | 354 | 25.7 | 46.7 | 0.00 | 0.00 | 0.00 | 41 | 1004.9 |
| 20260509150022 | 8 | 351 | 17.7 | 37.0 | 0.00 | 0.00 | 0.00 | 42 | 1004.7 |
| 20260509144513 | 8 | 44 | 19.3 | 43.5 | 0.00 | 0.00 | 0.00 | 41 | 1004.5 |
| 20260509143019 | 8 | 359 | 14.5 | 51.5 | 0.00 | 0.00 | 0.00 | 40 | 1004.5 |
| 20260509141529 | 8 | 350 | 16.1 | 38.6 | 0.00 | 0.00 | 0.00 | 40 | 999.8 |
| 20260509140044 | 8 | 14 | 24.1 | 43.5 | 0.00 | 0.00 | 0.00 | 38 | 1003.8 |
| 20260509134523 | 9 | 79 | 12.9 | 32.2 | 0.00 | 0.00 | 0.00 | 37 | 1003.9 |
| 20260509133026 | 8 | 357 | 8.0 | 40.2 | 0.00 | 0.00 | 0.00 | 37 | 1003.5 |
| 20260509131529 | 8 | 359 | 22.5 | 41.8 | 0.00 | 0.00 | 0.00 | 37 | 1002.7 |
| 20260509130026 | 8 | 340 | 22.5 | 38.6 | 0.00 | 0.00 | 0.00 | 37 | 1002.4 |
| 20260509124535 | 8 | 355 | 9.7 | 27.4 | 0.00 | 0.00 | 0.00 | 38 | 1002.8 |
| 20260509123026 | 8 | 353 | 12.9 | 30.6 | 0.00 | 0.00 | 0.00 | 38 | 1002.8 |
| 20260509121513 | 8 | 348 | 12.9 | 27.4 | 0.00 | 0.00 | 0.00 | 38 | 1002.7 |
| 20260509120018 | 8 | 351 | 6.4 | 22.5 | 0.00 | 0.00 | 0.00 | 38 | 1002.4 |
| 20260509114529 | 8 | 354 | 9.7 | 33.8 | 0.00 | 0.00 | 0.00 | 37 | 1002.2 |
| 20260509113024 | 8 | 359 | 6.4 | 29.0 | 0.00 | 0.00 | 0.00 | 36 | 1002.3 |
| 20260509111528 | 8 | 347 | 12.9 | 25.7 | 0.00 | 0.00 | 0.00 | 34 | 1001.9 |
| 20260509110028 | 9 | 347 | 14.5 | 20.9 | 0.00 | 0.00 | 0.00 | 33 | 1000.4 |
| 20260509104522 | 9 | 351 | 9.7 | 17.7 | 0.00 | 0.00 | 0.00 | 34 | 1001.3 |
| 20260509103023 | 9 | 352 | 9.7 | 17.7 | 0.00 | 0.00 | 0.00 | 33 | 1001.1 |
| 20260509101526 | 10 | 352 | 11.3 | 16.1 | 0.00 | 0.00 | 0.00 | 34 | 1001.1 |
| 20260509100031 | 10 | 356 | 8.0 | 16.1 | 0.00 | 0.00 | 0.00 | 35 | 1001.0 |
| 20260509094520 | 10 | 337 | 11.3 | 17.7 | 0.00 | 0.00 | 0.00 | 36 | 1000.9 |
| 20260509093023 | 10 | 343 | 8.0 | 19.3 | 0.00 | 0.00 | 0.00 | 36 | 1000.9 |
| 20260509091528 | 10 | 347 | 9.7 | 17.7 | 0.00 | 0.00 | 0.00 | 37 | 1000.8 |
| 20260509084534 | 10 | 349 | 8.0 | 16.1 | 0.00 | 0.00 | 0.00 | 39 | 1000.6 |
| 20260509083021 | 10 | 333 | 8.0 | 17.7 | 0.00 | 0.00 | 0.00 | 39 | 1000.4 |
| 20260509081526 | 11 | 328 | 11.3 | 16.1 | 0.00 | 0.00 | 0.00 | 38 | 1000.4 |
| 20260509080028 | 11 | 328 | 11.3 | 19.3 | 0.00 | 0.00 | 0.00 | 39 | 1000.2 |
| 20260509074526 | 11 | 329 | 14.5 | 17.7 | 0.00 | 0.00 | 0.00 | 39 | 1000.0 |
| 20260509073025 | 11 | 329 | 11.3 | 14.5 | 0.00 | 0.00 | 0.00 | 39 | 1000.1 |
| 20260509071522 | 11 | 345 | 12.9 | 16.1 | 0.00 | 0.00 | 0.00 | 37 | 1000.1 |
| 20260509070025 | 11 | 350 | 9.7 | 19.3 | 0.00 | 0.00 | 0.00 | 35 | 1000.3 |
| 20260509064528 | 11 | 335 | 6.4 | 17.7 | 0.00 | 0.00 | 0.00 | 36 | 1000.4 |
| 20260509063027 | 11 | 352 | 9.7 | 22.5 | 0.00 | 0.00 | 0.00 | 37 | 1000.5 |
| 20260509061533 | 11 | 308 | 9.7 | 12.9 | 0.00 | 0.00 | 0.00 | 38 | 1000.5 |
| 20260509060025 | 12 | 313 | 8.0 | 11.3 | 0.00 | 0.00 | 0.00 | 37 | 1000.3 |
| 20260509054507 | 12 | 318 | 9.7 | 14.5 | 0.00 | 0.00 | 0.00 | 36 | 1000.1 |
| 20260509053014 | 12 | 310 | 9.7 | 14.5 | 0.00 | 0.00 | 0.00 | 37 | 1000.2 |
| 20260509051518 | 12 | 300 | 6.4 | 11.3 | 0.00 | 0.00 | 0.00 | 38 | 1000.0 |
| 20260509050023 | 12 | 299 | 4.8 | 11.3 | 0.00 | 0.00 | 0.00 | 39 | 999.9 |
| 20260509044521 | 12 | 301 | 9.7 | 11.3 | 0.00 | 0.00 | 0.00 | 38 | 1000.1 |
| 20260509043011 | 12 | 305 | 11.3 | 14.5 | 0.00 | 0.00 | 0.00 | 38 | 1000.3 |
| 20260509041522 | 12 | 307 | 11.3 | 14.5 | 0.00 | 0.00 | 0.00 | 38 | 1000.3 |
| 20260509040020 | 13 | 311 | 9.7 | 12.9 | 0.00 | 0.00 | 0.00 | 37 | 1000.1 |
| 20260509034525 | 13 | 338 | 6.4 | 12.9 | 0.00 | 0.00 | 0.00 | 36 | 1000.1 |
| 20260509033022 | 14 | 344 | 11.3 | 14.5 | 0.00 | 0.00 | 0.00 | 35 | 1000.1 |
| 20260509031514 | 14 | 354 | 9.7 | 17.7 | 0.00 | 0.00 | 0.00 | 34 | 999.9 |
| 20260509030018 | 15 | 354 | 9.7 | 17.7 | 0.00 | 0.00 | 0.00 | 33 | 1000.1 |
| 20260509024522 | 15 | 350 | 9.7 | 25.7 | 0.00 | 0.00 | 0.00 | 32 | 999.8 |